Погода в Ново-Селе

Болгария     44°09′42″N   22°47′03″E
темп.,
°C
ветер,
м/с
пор.,
м/с
влажн.,
%
обл.,
%
осадки,
мм/ч
давл.,
гПа
погр.,
м
16 апреля, пт
пт1600:00+4з612720 0.0 1021351
03:00+3з49775 0.0 1021167
06:00+2зюз510760 0.0 1021236
09:00+6з711590 0.0 1021969
12:00+10зсз81042100 0.0 10212114
15:00+11зсз894037 0.0 10202007
18:00+10зсз784359 0.0 10191523
21:00+5зсз496187 0.0 1020212
17 апреля, сб
сб1700:00+4зсз3467100 0.0 102078
03:00+2сз1175100 0.0 102012
06:00+1ссз2279100 0.0 102015
09:00+5ссз226361 0.0 1020264
12:00+11всв124792 0.0 1019915
15:00+12ююв3448100 0.0 10171545
18:00+9юв2482100 1.3 1016294
21:00+8ссв1194100 3.1 101644
18 апреля, вс
вс1800:00+8св4993100 4.4 1015537
03:00+9всв51092100 8.1 1014677
06:00+8в51087100 1.0 1013640
09:00+7в41090100 2.9 1014673
12:00+7всв3893100 6.0 1015641
15:00+8св4887100 7.0 1016627
18:00+7св3587100 0.0 1017390
21:00+7ссз2491100 0.1 1018152
19 апреля, пн
пн1900:00+7ссз2292100 0.0 101883
03:00+6ссз249270 0.0 1016119
06:00+6ссв1189100 0.0 101537
09:00+7с2284100 0.1 1015238
12:00+9св1280100 0.3 1014530
15:00+8юз1188100 0.9 1012198
18:00+9зюз2285100 0.4 1011267
21:00+7юз2392100 0.4 101041
20 апреля, вт
вт2000:00+8з51283100 0.0 1009407
03:00+8зсз81577100 0.0 1009617
06:00+8з71479100 0.0 1010649
09:00+9з8137689 0.0 1011981
12:00+12з101262100 0.0 10121296
15:00+14зсз81051100 0.0 10121959
18:00+14зсз610575 0.0 10121538
21:00+9зсз47772 0.0 1013121